Location: LewisvilleTX
(33.0462°N, 96.9942°W)
Time: 21:47:43
(UTC+00:00)

N. Korean satellite - Pass Details

Date: 03 December 2021
Orbit: 447 x 490 km, 97.3° (Epoch: 27 January)

Event Time Altitude Azimuth Distance (km) Brightness Sun altitude
Rises 23:42:32 0° 197° (SSW) 2,539 10.9 -5.0°
Reaches altitude 10° 23:44:59 10° 214° (SW) 1,656 10.3 -5.4°
Maximum altitude 23:47:42 20° 264° (W) 1,141 9.6 -6.0°
Drops below altitude 10° 23:50:24 10° 314° (NW) 1,645 9.6 -6.5°
Sets 23:52:50 0° 331° (NNW) 2,516 10.3 -7.0°
